Location: Lafig�re
(44.4503°N, 4.0357°E)
Time: 06:34:33
(UTC+00:00)

Cosmos 1125 Rocket - Pass Details

Date: 26 January 2021
Orbit: 757 x 780 km, 74.0° (Epoch: 06 March)

Event Time Altitude Azimuth Distance (km) Brightness Sun altitude
Rises 18:33:49 0° 167° (SSE) 3,206 6.7 -19.4°
Reaches altitude 10° 18:36:28 10° 155° (SSE) 2,289 5.8 -19.9°
Enters shadow 18:37:53 17° 144° (SE) 1,874 5.2 -20.1°
